Weather Roundup
Issued by NWS

Home | Current Version | Previous Version | Text Only | Print | Product List | Glossary On
Versions: 1 2 3 4 5 6 7 8 9 10 11 12 13 14 15 16 17 18 19 20 21 22 23 24 25 26 27 28 29 30 31 32 33 34 35 36 37 38 39 40 41 42 43 44 45 46 47 48 49 50
000
NZUS93 KARX 232310
HRRWXR

CURRENT HOURLY OBSERVATIONS ACROSS
MUCH OF THE UPPER MISSISSIPPI VALLEY
NATIONAL WEATHER SERVICE LA CROSSE WI
600 PM CDT TUE JUL 23 2019


...SOUTHEAST MINNESOTA...


CITY           SKY/WX    TMP DP  RH WIND       PRES   REMARKS
ROCHESTER      FAIR      77  59  53 NW10      30.19F
ROCHESTER/MAYO FAIR      79  54  41 W9        30.18F
WINONA         FAIR      79  59  50 NW7       30.14F
AUSTIN         FAIR      81  50  34 W13G22    30.20F
ALBERT LEA     NOT AVBL
DODGE CENTER   FAIR      77  55  47 CALM      30.19F
PRESTON        FAIR      76  58  53 NW9       30.18F
OWATONNA       NOT AVBL
FARIBAULT      NOT AVBL
$$

...ELSEWHERE IN MINNESOTA...


CITY           SKY/WX    TMP DP  RH WIND       PRES   REMARKS
MINNEAPOLIS    FAIR      82  54  37 W8        30.16F
INTNL FALLS    PTSUNNY   81  61  50 NW10      30.13S
DULUTH         FAIR      80  56  43 NW6       30.13S
RED WING       FAIR      82  43  24 W9G16     30.14F
REDWOOD FALLS  SUNNY     81  56  42 CALM      30.19F
MANKATO        FAIR      78  58  49 NW7       30.20F
WORTHINGTON    SUNNY     76  53  44 E5        30.24F
FAIRMONT       SUNNY     77  57  50 N6        30.22F
$$

...SOUTHWEST WISCONSIN...


CITY           SKY/WX    TMP DP  RH WIND       PRES   REMARKS
LA CROSSE      FAIR      83  59  44 NW13      30.12F
PRAIRIE DU CHI FAIR      81  55  41 NW10      30.12F
BOSCOBEL       FAIR      82  60  47 NW10      30.12F
LONE ROCK      CLOUDY    68  60  75 W6        30.12R
PLATTEVILLE    FAIR      79  61  54 NW7       30.13F
FORT MC COY    FAIR      79  60  51 NW12      30.13F
CAMP DOUGLAS   PTSUNNY   72  70  94 NW5       30.12F
MAUSTON-NEW LI FAIR      72  62  70 NW3       30.12S
VIROQUA        FAIR      77  62  58 NW14G23   30.14F
WIS DELLS      FAIR      74  58  56 NW8       30.12R
$$

...ELSEWHERE IN WISCONSIN...


CITY           SKY/WX    TMP DP  RH WIND       PRES   REMARKS
MILWAUKEE      FAIR      72  57  59 E9        30.09S
MADISON        PTSUNNY   78  59  51 NW5       30.09F
GREEN BAY      FAIR      78  57  48 NE9       30.08S
EAU CLAIRE     FAIR      79  58  48 NW10      30.13S
BLACK RVR FLS  FAIR      81  59  46 NW7       30.12F
MEDFORD        FAIR      70  60  71 CALM      30.13F
WAUSAU         FAIR      75  58  55 W13       30.10F
WIS RAPIDS     FAIR      74  62  66 MISG      30.12F
MARSHFIELD     PTSUNNY   72  59  63 NW6       30.13F
RICE LAKE      FAIR      79  58  48 NW7       30.15S
$$

...NORTHEAST IOWA...


CITY           SKY/WX    TMP DP  RH WIND       PRES   REMARKS
WATERLOO       FAIR      82  59  45 NW10      30.16F
DUBUQUE        FAIR      78  59  51 NW14      30.14F
DECORAH        FAIR      77  61  57 N12       30.15F
MASON CITY     SUNNY     78  56  46 NW9       30.22F
CHARLES CITY   FAIR      77  59  53 NW8       30.19F
OELWEIN        SUNNY     79  63  57 NW12      30.17F
$$

...ELSEWHERE IN IOWA...


CITY           SKY/WX    TMP DP  RH WIND       PRES   REMARKS
DES MOINES     MOSUNNY   81  54  39 NW5       30.18F
IOWA CITY      FAIR      81  55  40 N9        30.15F
FORT DODGE     MOSUNNY   78  59  51 VRB5      30.21F
MARSHALLTOWN   MOSUNNY   80  58  46 NW9       30.18F
CEDAR RAPIDS   FAIR      80  59  48 NW13      30.14F
$$

...NORTHERN ILLINOIS...


CITY           SKY/WX    TMP DP  RH WIND       PRES   REMARKS
CHICAGO-OHARE  FAIR      76  58  53 NE9       30.08S
CHICAGO-MIDWAY FAIR      76  58  53 NE14      30.08S
MOLINE         PTSUNNY   84  55  36 N12G22    30.11S
ROCKFORD       PTSUNNY   80  56  43 N12       30.11F
PEORIA         FAIR      81  55  40 NW10G18   30.10F
$$

NOTE: "FAIR" INDICATES FEW OR NO CLOUDS BELOW 12,000 FEET WITH NO
SIGNIFICANT WEATHER AND/OR OBSTRUCTIONS TO VISIBILITY. WIND
SPEEDS ARE IN MILES-PER-HOUR.




USA.gov is the U.S. government's official web portal to all federal, state and local government web resources and services.